Location: Brno
(49.2000°N, 16.6330°E)
Time: 23:24:55
(UTC+02:00)

Transit 4A - Pass Details

Date: 27 July 2021
Orbit: 870 x 974 km, 66.8° (Epoch: 26 September)

Event Time Altitude Azimuth Distance (km) Brightness Sun altitude
Rises 10:29:19 0° 323° (NW) 3,472 10.5 47.4°
Reaches altitude 10° 10:31:47 10° 322° (NW) 2,535 9.9 47.8°
Maximum altitude 10:37:38 79° 237° (WSW) 906 8.7 48.6°
Drops below altitude 10° 10:43:35 10° 152° (SSE) 2,570 11.0 49.4°
Sets 10:46:06 0° 151° (SSE) 3,522 11.5 49.7°
